Regional Weather Roundup
Issued by NWS

Home | Current Version | Previous Version | Text Only | Print | Product List | Glossary Off
Versions: 1 2 3 4 5 6 7 8 9 10 11 12 13 14 15 16 17 18 19 20 21 22 23 24 25 26 27 28 29 30 31 32 33 34 35 36 37 38 39 40 41 42 43 44 45 46 47 48 49 50

000
ASUS43 KFSD 300002
RWRSD

WEATHER ROUNDUP FOR SOUTH DAKOTA
NATIONAL WEATHER SERVICE SIOUX FALLS SD
700 PM CDT WED OCT 29 2014

NOTE: "FAIR" INDICATES FEW OR NO CLOUDS BELOW 12,000 FEET WITH NO
SIGNIFICANT WEATHER AND/OR OBSTRUCTIONS TO VISIBILITY.


SDZ001>005-009-010-012>017-300100-
NORTHWEST AND NORTH CENTRAL SOUTH DAKOTA

CITY           SKY/WX    TMP DP  RH WIND       PRES   REMARKS
BUFFALO          N/A     52  36  54 NW12      29.93S
FAITH            N/A     48  30  49 SW10      29.97R
MOBRIDGE       CLOUDY    51  37  58 S3        29.93S
$$

SDZ012>016-024>037-041>051-057-063-072>074-300100-
SOUTHWEST AND SOUTH CENTRAL SOUTH DAKOTA

CITY           SKY/WX    TMP DP  RH WIND       PRES   REMARKS
RAPID CTY ARPT PTCLDY    51  33  50 N8        30.02R
PIERRE         MOCLDY    53  30  41 SE8       29.95S
CUSTER         PTCLDY    50  26  39 NW8       30.08R
ELLSWORTH AFB  PTCLDY    54  34  47 N9        30.01R
PHILIP         MOCLDY    55  30  38 SW3       29.98R
PINE RIDGE     PTCLDY    57  26  30 N12       30.02R
SPEARFISH      FAIR      50  32  50 NW7       30.05R
WINNER         CLOUDY    59  24  26 E3        29.96R
$$

SDZ004>011-016>023-039-040-300100-
NORTHEAST SOUTH DAKOTA

CITY           SKY/WX    TMP DP  RH WIND       PRES   REMARKS
ABERDEEN       CLOUDY    48  31  51 S5        30.00S
WATERTOWN      CLOUDY    41  32  70 S5        30.01S
SISSETON         N/A     41  33  73 SE5       30.02R
$$

SDZ017-020-022-023-036>040-048>070-300100-
SOUTHEAST SOUTH DAKOTA

CITY           SKY/WX    TMP DP  RH WIND       PRES   REMARKS
SIOUX FALLS    MOCLDY    45  30  55 S7        30.05R
HURON          MOCLDY    49  32  52 S7        30.01S
CHAMBERLAIN    CLOUDY    51  31  46 E5        29.97S
MITCHELL       MOCLDY    50  33  52 SE7       30.02S
YANKTON        PTCLDY    48  28  46 SE5       30.04S
$$

ABBREVIATIONS USED IN REMARKS
   TC - TEMPERATURE IN CELSIUS
  WCI - WIND CHILL INDEX
   HX - HEAT INDEX
  VSB - VISIBILITY




USA.gov is the U.S. government's official web portal to all federal, state and local government web resources and services.